Time,TemperatureF,DewpointF,PressureIn,WindDirection,WindDirectionDegrees,WindSpeedMPH,WindSpeedGustMPH,Humidity,HourlyPrecipIn,Conditions,Clouds,dailyrainin,SoftwareType,DateUTC
2013-08-16 00:01:00,61.9,53.1,30.23,NW,315,0.0,0.0,73,0.00,,,0.00,pywws,2013-08-16 04:01:00,
2013-08-16 00:02:00,61.9,53.1,30.23,NW,315,0.0,0.0,73,0.00,,,0.00,pywws,2013-08-16 04:02:00,
2013-08-16 00:03:00,61.9,53.1,30.23,NW,315,0.0,0.0,73,0.00,,,0.00,pywws,2013-08-16 04:03:00,
2013-08-16 00:04:00,61.9,53.1,30.24,NW,315,0.0,0.0,73,0.00,,,0.00,pywws,2013-08-16 04:04:00,
2013-08-16 00:06:00,61.9,53.1,30.24,NW,315,0.0,0.0,73,0.00,,,0.00,pywws,2013-08-16 04:06:00,
2013-08-16 00:12:00,61.7,53.3,30.23,SW,225,0.0,0.7,74,0.00,,,0.00,pywws,2013-08-16 04:12:00,
2013-08-16 00:18:00,61.5,53.2,30.23,West,270,0.0,0.7,74,0.00,,,0.00,pywws,2013-08-16 04:18:00,
2013-08-16 00:24:00,61.5,53.5,30.24,SW,225,0.0,0.7,75,0.00,,,0.00,pywws,2013-08-16 04:24:00,
2013-08-16 00:31:00,61.5,53.5,30.24,NE,45,0.0,0.0,75,0.00,,,0.00,pywws,2013-08-16 04:31:00,
2013-08-16 00:37:00,61.5,53.5,30.24,NE,45,0.0,0.0,75,0.00,,,0.00,pywws,2013-08-16 04:37:00,
2013-08-16 00:42:00,61.3,53.7,30.23,NE,45,0.7,1.6,76,0.00,,,0.00,pywws,2013-08-16 04:42:00,
2013-08-16 00:48:00,61.2,53.5,30.23,SE,135,0.0,0.0,76,0.00,,,0.00,pywws,2013-08-16 04:48:00,
2013-08-16 00:54:00,61.0,53.4,30.23,SE,135,0.0,0.0,76,0.00,,,0.00,pywws,2013-08-16 04:54:00,
2013-08-16 00:59:00,61.0,53.7,30.23,North,0,0.0,0.0,77,0.00,,,0.00,pywws,2013-08-16 04:59:00,
2013-08-16 01:05:00,60.8,53.5,30.23,East,90,0.0,0.0,77,0.00,,,0.00,pywws,2013-08-16 05:05:00,
2013-08-16 01:10:00,60.6,53.7,30.23,SE,135,0.0,0.0,78,0.00,,,0.00,pywws,2013-08-16 05:10:00,
2013-08-16 01:16:00,60.4,53.9,30.23,North,0,0.0,0.0,79,0.00,,,0.00,pywws,2013-08-16 05:16:00,
2013-08-16 01:22:00,60.3,53.7,30.23,North,0,0.0,0.0,79,0.00,,,0.00,pywws,2013-08-16 05:22:00,
2013-08-16 01:27:00,60.3,54.1,30.23,North,0,0.0,0.0,80,0.00,,,0.00,pywws,2013-08-16 05:27:00,
2013-08-16 01:33:00,60.1,53.9,30.23,North,0,0.0,0.0,80,0.00,,,0.00,pywws,2013-08-16 05:33:00,
2013-08-16 01:38:00,59.9,53.7,30.23,North,0,0.0,0.0,80,0.00,,,0.00,pywws,2013-08-16 05:38:00,
2013-08-16 01:44:00,59.7,53.9,30.22,North,0,0.0,0.0,81,0.00,,,0.00,pywws,2013-08-16 05:44:00,
2013-08-16 01:50:00,59.5,53.7,30.22,North,0,0.0,0.0,81,0.00,,,0.00,pywws,2013-08-16 05:50:00,
2013-08-16 01:56:00,59.4,53.9,30.22,North,0,0.0,0.0,82,0.00,,,0.00,pywws,2013-08-16 05:56:00,
2013-08-16 02:05:00,59.4,53.9,30.22,North,0,0.0,0.0,82,0.00,,,0.00,pywws,2013-08-16 06:05:00,
2013-08-16 02:10:00,59.0,53.8,30.22,North,0,0.0,0.0,83,0.00,,,0.00,pywws,2013-08-16 06:10:00,
2013-08-16 02:16:00,59.0,53.8,30.22,North,0,0.0,0.0,83,0.00,,,0.00,pywws,2013-08-16 06:16:00,
2013-08-16 02:22:00,58.8,54.0,30.22,North,0,0.0,0.0,84,0.00,,,0.00,pywws,2013-08-16 06:22:00,
2013-08-16 02:27:00,58.8,54.0,30.22,North,0,0.0,0.0,84,0.00,,,0.00,pywws,2013-08-16 06:27:00,
2013-08-16 02:33:00,58.8,54.0,30.22,North,0,0.0,0.0,84,0.00,,,0.00,pywws,2013-08-16 06:33:00,
2013-08-16 02:38:00,58.6,53.8,30.22,North,0,0.0,0.0,84,0.00,,,0.00,pywws,2013-08-16 06:38:00,
2013-08-16 02:44:00,58.5,54.0,30.22,North,0,0.0,0.0,85,0.00,,,0.00,pywws,2013-08-16 06:44:00,
2013-08-16 02:50:00,58.3,53.8,30.22,North,0,0.0,0.0,85,0.00,,,0.00,pywws,2013-08-16 06:50:00,
2013-08-16 02:56:00,58.1,53.6,30.22,North,0,0.0,0.0,85,0.00,,,0.00,pywws,2013-08-16 06:56:00,
2013-08-16 03:05:00,58.1,53.6,30.22,North,0,0.0,0.0,85,0.00,,,0.00,pywws,2013-08-16 07:05:00,
2013-08-16 03:10:00,57.9,53.4,30.22,North,0,0.0,0.0,85,0.00,,,0.00,pywws,2013-08-16 07:10:00,
2013-08-16 03:16:00,57.9,53.4,30.22,East,90,0.0,0.0,85,0.00,,,0.00,pywws,2013-08-16 07:16:00,
2013-08-16 03:22:00,57.9,53.8,30.22,East,90,0.0,0.0,86,0.00,,,0.00,pywws,2013-08-16 07:22:00,
2013-08-16 03:27:00,57.7,53.6,30.22,East,90,0.0,0.0,86,0.00,,,0.00,pywws,2013-08-16 07:27:00,
2013-08-16 03:33:00,57.7,53.6,30.22,East,90,0.0,0.0,86,0.00,,,0.00,pywws,2013-08-16 07:33:00,
2013-08-16 03:38:00,57.7,53.6,30.22,East,90,0.0,0.0,86,0.00,,,0.00,pywws,2013-08-16 07:38:00,
2013-08-16 03:44:00,57.6,53.4,30.22,NNE,22,0.0,0.0,86,0.00,,,0.00,pywws,2013-08-16 07:44:00,
2013-08-16 03:51:00,57.4,53.5,30.22,NE,45,0.0,0.0,87,0.00,,,0.00,pywws,2013-08-16 07:51:00,
2013-08-16 03:57:00,57.4,53.5,30.22,NE,45,0.0,0.0,87,0.00,,,0.00,pywws,2013-08-16 07:57:00,
2013-08-16 04:05:00,57.4,53.5,30.22,NE,45,0.0,0.0,87,0.00,,,0.00,pywws,2013-08-16 08:05:00,
2013-08-16 04:10:00,57.2,53.4,30.22,NNE,22,0.0,0.0,87,0.00,,,0.00,pywws,2013-08-16 08:10:00,
2013-08-16 04:16:00,57.0,53.5,30.22,NE,45,0.0,0.0,88,0.00,,,0.00,pywws,2013-08-16 08:16:00,
2013-08-16 04:22:00,57.0,53.5,30.22,NE,45,0.0,0.0,88,0.00,,,0.00,pywws,2013-08-16 08:22:00,
2013-08-16 04:27:00,56.8,53.3,30.22,NNE,22,0.0,0.0,88,0.00,,,0.00,pywws,2013-08-16 08:27:00,
2013-08-16 04:33:00,56.8,53.3,30.23,North,0,0.0,0.0,88,0.00,,,0.00,pywws,2013-08-16 08:33:00,
2013-08-16 04:38:00,56.7,53.5,30.22,North,0,0.0,0.0,89,0.00,,,0.00,pywws,2013-08-16 08:38:00,
2013-08-16 04:44:00,56.7,53.5,30.22,North,0,0.0,0.0,89,0.00,,,0.00,pywws,2013-08-16 08:44:00,
2013-08-16 04:50:00,56.7,53.5,30.22,North,0,0.0,1.6,89,0.00,,,0.00,pywws,2013-08-16 08:50:00,
2013-08-16 04:56:00,56.5,53.3,30.22,North,0,0.7,1.6,89,0.00,,,0.00,pywws,2013-08-16 08:56:00,
2013-08-16 05:06:00,56.5,53.3,30.22,North,0,0.0,0.7,89,0.00,,,0.00,pywws,2013-08-16 09:06:00,
2013-08-16 05:11:00,56.5,53.3,30.22,NNE,22,0.0,0.0,89,0.00,,,0.00,pywws,2013-08-16 09:11:00,
2013-08-16 05:17:00,56.3,53.1,30.22,NNE,22,0.0,0.0,89,0.00,,,0.00,pywws,2013-08-16 09:17:00,
2013-08-16 05:22:00,56.3,53.1,30.23,North,0,0.0,0.0,89,0.00,,,0.00,pywws,2013-08-16 09:22:00,
2013-08-16 05:28:00,56.1,52.9,30.23,North,0,0.0,0.0,89,0.00,,,0.00,pywws,2013-08-16 09:28:00,
2013-08-16 05:34:00,56.1,52.9,30.23,North,0,0.0,0.0,89,0.00,,,0.00,pywws,2013-08-16 09:34:00,
2013-08-16 05:39:00,55.9,52.7,30.23,North,0,0.0,0.0,89,0.00,,,0.00,pywws,2013-08-16 09:39:00,
2013-08-16 05:45:00,55.9,53.0,30.23,NW,315,0.0,0.7,90,0.00,,,0.00,pywws,2013-08-16 09:45:00,
2013-08-16 05:50:00,55.9,53.0,30.23,NW,315,0.7,2.2,90,0.00,,,0.00,pywws,2013-08-16 09:50:00,
2013-08-16 05:56:00,56.1,53.2,30.23,NNW,338,0.7,1.6,90,0.00,,,0.00,pywws,2013-08-16 09:56:00,
2013-08-16 06:05:00,56.1,53.2,30.23,North,0,0.7,1.6,90,0.00,,,0.00,pywws,2013-08-16 10:05:00,
2013-08-16 06:10:00,56.3,53.4,30.23,North,0,0.0,1.6,90,0.00,,,0.00,pywws,2013-08-16 10:10:00,
2013-08-16 06:16:00,56.3,53.1,30.24,NW,315,0.0,0.7,89,0.00,,,0.00,pywws,2013-08-16 10:16:00,
2013-08-16 06:22:00,56.3,53.1,30.24,North,0,0.0,0.0,89,0.00,,,0.00,pywws,2013-08-16 10:22:00,
2013-08-16 06:27:00,56.3,53.1,30.24,North,0,0.0,0.0,89,0.00,,,0.00,pywws,2013-08-16 10:27:00,
2013-08-16 06:33:00,56.3,53.1,30.24,North,0,0.0,0.0,89,0.00,,,0.00,pywws,2013-08-16 10:33:00,
2013-08-16 06:38:00,56.3,53.1,30.24,North,0,0.0,0.7,89,0.00,,,0.00,pywws,2013-08-16 10:38:00,
2013-08-16 06:44:00,56.5,53.3,30.23,North,0,0.7,2.2,89,0.00,,,0.00,pywws,2013-08-16 10:44:00,
2013-08-16 06:51:00,56.7,53.5,30.24,NNW,338,0.7,1.6,89,0.00,,,0.00,pywws,2013-08-16 10:51:00,
2013-08-16 06:57:00,56.8,53.6,30.24,NW,315,0.7,1.6,89,0.00,,,0.00,pywws,2013-08-16 10:57:00,
2013-08-16 07:06:00,56.8,53.6,30.24,NW,315,0.7,1.6,89,0.00,,,0.00,pywws,2013-08-16 11:06:00,
2013-08-16 07:11:00,57.2,53.7,30.24,North,0,0.7,1.6,88,0.00,,,0.00,pywws,2013-08-16 11:11:00,
2013-08-16 07:17:00,57.2,53.4,30.24,North,0,0.0,1.6,87,0.00,,,0.00,pywws,2013-08-16 11:17:00,
2013-08-16 07:22:00,57.4,53.5,30.24,North,0,0.7,2.2,87,0.00,,,0.00,pywws,2013-08-16 11:22:00,
2013-08-16 07:28:00,57.4,53.5,30.24,NW,315,0.7,1.6,87,0.00,,,0.00,pywws,2013-08-16 11:28:00,
2013-08-16 07:34:00,57.6,53.7,30.24,North,0,0.0,1.6,87,0.00,,,0.00,pywws,2013-08-16 11:34:00,
2013-08-16 07:40:00,57.6,53.7,30.24,North,0,0.7,2.2,87,0.00,,,0.00,pywws,2013-08-16 11:40:00,
2013-08-16 07:46:00,57.9,53.8,30.24,North,0,1.6,2.2,86,0.00,,,0.00,pywws,2013-08-16 11:46:00,
2013-08-16 07:51:00,58.5,54.3,30.24,NW,315,0.0,0.7,86,0.00,,,0.00,pywws,2013-08-16 11:51:00,
2013-08-16 07:57:00,59.0,54.2,30.24,North,0,1.6,2.2,84,0.00,,,0.00,pywws,2013-08-16 11:57:00,
2013-08-16 08:05:00,59.2,54.3,30.24,North,0,0.0,0.7,84,0.00,,,0.00,pywws,2013-08-16 12:05:00,
2013-08-16 08:10:00,60.1,54.9,30.24,NW,315,3.1,3.8,83,0.00,,,0.00,pywws,2013-08-16 12:10:00,
2013-08-16 08:16:00,60.6,55.1,30.25,NW,315,1.6,3.1,82,0.00,,,0.00,pywws,2013-08-16 12:16:00,
2013-08-16 08:22:00,61.2,54.9,30.24,West,270,1.6,3.1,80,0.00,,,0.00,pywws,2013-08-16 12:22:00,
2013-08-16 08:27:00,61.7,55.1,30.25,NW,315,0.7,1.6,79,0.00,,,0.00,pywws,2013-08-16 12:27:00,
2013-08-16 08:33:00,62.4,55.5,30.25,NW,315,0.7,1.6,78,0.00,,,0.00,pywws,2013-08-16 12:33:00,
2013-08-16 08:38:00,63.0,55.3,30.25,North,0,1.6,3.1,76,0.00,,,0.00,pywws,2013-08-16 12:38:00,
2013-08-16 08:44:00,63.5,55.1,30.25,West,270,1.6,3.1,74,0.00,,,0.00,pywws,2013-08-16 12:44:00,
2013-08-16 08:50:00,64.2,55.0,30.25,North,0,0.7,2.2,72,0.00,,,0.00,pywws,2013-08-16 12:50:00,
2013-08-16 08:56:00,64.9,54.9,30.25,NW,315,1.6,2.2,70,0.00,,,0.00,pywws,2013-08-16 12:56:00,
2013-08-16 09:05:00,65.1,55.1,30.25,East,90,0.7,1.6,70,0.00,,,0.00,pywws,2013-08-16 13:05:00,
2013-08-16 09:10:00,66.7,56.2,30.25,NE,45,0.7,1.6,69,0.00,,,0.00,pywws,2013-08-16 13:10:00,
2013-08-16 09:16:00,67.3,55.5,30.25,NNE,22,0.0,0.7,66,0.00,,,0.00,pywws,2013-08-16 13:16:00,
2013-08-16 09:22:00,68.2,56.0,30.25,NE,45,1.6,2.2,65,0.00,,,0.00,pywws,2013-08-16 13:22:00,
2013-08-16 09:27:00,68.7,56.0,30.25,NE,45,0.0,0.7,64,0.00,,,0.00,pywws,2013-08-16 13:27:00,
2013-08-16 09:33:00,69.6,57.7,30.25,SW,225,0.7,2.2,66,0.00,,,0.00,pywws,2013-08-16 13:33:00,
2013-08-16 09:38:00,70.7,57.9,30.25,WNW,292,0.7,1.6,64,0.00,,,0.00,pywws,2013-08-16 13:38:00,
2013-08-16 09:44:00,72.1,58.8,30.25,East,90,0.7,2.2,63,0.00,,,0.00,pywws,2013-08-16 13:44:00,
2013-08-16 09:50:00,73.4,59.6,30.25,NW,315,0.7,1.6,62,0.00,,,0.00,pywws,2013-08-16 13:50:00,
2013-08-16 09:56:00,73.9,58.2,30.25,North,0,0.0,0.7,58,0.00,,,0.00,pywws,2013-08-16 13:56:00,
2013-08-16 10:05:00,74.1,58.9,30.25,North,0,0.0,1.6,59,0.00,,,0.00,pywws,2013-08-16 14:05:00,
2013-08-16 10:10:00,75.4,58.1,30.25,NE,45,1.6,3.1,55,0.00,,,0.00,pywws,2013-08-16 14:10:00,
2013-08-16 10:16:00,75.2,55.8,30.25,West,270,2.2,3.1,51,0.00,,,0.00,pywws,2013-08-16 14:16:00,
2013-08-16 10:22:00,75.6,57.7,30.26,North,0,0.0,1.6,54,0.00,,,0.00,pywws,2013-08-16 14:22:00,
2013-08-16 10:27:00,76.1,58.7,30.25,East,90,0.7,3.1,55,0.00,,,0.00,pywws,2013-08-16 14:27:00,
2013-08-16 10:33:00,76.8,58.4,30.26,NW,315,0.7,2.2,53,0.00,,,0.00,pywws,2013-08-16 14:33:00,
2013-08-16 10:38:00,77.0,56.4,30.26,NW,315,2.2,3.1,49,0.00,,,0.00,pywws,2013-08-16 14:38:00,
2013-08-16 10:44:00,77.2,57.1,30.25,West,270,0.7,2.2,50,0.00,,,0.00,pywws,2013-08-16 14:44:00,
2013-08-16 10:50:00,77.7,55.9,30.25,NE,45,1.6,3.8,47,0.00,,,0.00,pywws,2013-08-16 14:50:00,
2013-08-16 10:56:00,77.7,55.9,30.25,North,0,1.6,3.1,47,0.00,,,0.00,pywws,2013-08-16 14:56:00,
2013-08-16 11:05:00,77.9,57.2,30.25,SW,225,3.8,5.4,49,0.00,,,0.00,pywws,2013-08-16 15:05:00,
2013-08-16 11:10:00,79.0,57.6,30.25,SE,135,0.0,1.6,48,0.00,,,0.00,pywws,2013-08-16 15:10:00,
2013-08-16 11:16:00,79.3,55.5,30.25,North,0,3.1,4.5,44,0.00,,,0.00,pywws,2013-08-16 15:16:00,
2013-08-16 11:22:00,79.0,55.2,30.25,West,270,3.1,6.0,44,0.00,,,0.00,pywws,2013-08-16 15:22:00,
2013-08-16 11:27:00,79.5,55.7,30.26,South,180,1.6,3.8,44,0.00,,,0.00,pywws,2013-08-16 15:27:00,
2013-08-16 11:33:00,79.7,53.9,30.26,NW,315,3.1,5.4,41,0.00,,,0.00,pywws,2013-08-16 15:33:00,
2013-08-16 11:38:00,79.3,54.2,30.26,NW,315,2.2,3.8,42,0.00,,,0.00,pywws,2013-08-16 15:38:00,
2013-08-16 11:44:00,78.6,54.2,30.26,SW,225,1.6,3.1,43,0.00,,,0.00,pywws,2013-08-16 15:44:00,
2013-08-16 11:50:00,78.4,54.1,30.25,West,270,3.1,6.0,43,0.00,,,0.00,pywws,2013-08-16 15:50:00,
2013-08-16 11:56:00,78.1,54.4,30.26,West,270,1.6,3.1,44,0.00,,,0.00,pywws,2013-08-16 15:56:00,
2013-08-16 12:05:00,78.1,54.4,30.26,West,270,3.8,5.4,44,0.00,,,0.00,pywws,2013-08-16 16:05:00,
2013-08-16 12:10:00,77.2,53.6,30.25,NW,315,2.2,3.8,44,0.00,,,0.00,pywws,2013-08-16 16:10:00,
2013-08-16 12:16:00,76.8,53.8,30.25,North,0,2.2,3.1,45,0.00,,,0.00,pywws,2013-08-16 16:16:00,
2013-08-16 12:22:00,76.5,52.9,30.25,North,0,0.7,1.6,44,0.00,,,0.00,pywws,2013-08-16 16:22:00,
2013-08-16 12:27:00,77.2,54.2,30.25,West,270,2.2,3.1,45,0.00,,,0.00,pywws,2013-08-16 16:27:00,
2013-08-16 12:33:00,77.9,54.2,30.24,NNW,338,1.6,3.1,44,0.00,,,0.00,pywws,2013-08-16 16:33:00,
2013-08-16 12:38:00,78.3,54.5,30.25,SE,135,3.1,3.8,44,0.00,,,0.00,pywws,2013-08-16 16:38:00,
2013-08-16 12:44:00,79.2,54.7,30.25,North,0,3.8,6.9,43,0.00,,,0.00,pywws,2013-08-16 16:44:00,
2013-08-16 12:50:00,79.5,50.9,30.25,East,90,0.0,1.6,37,0.00,,,0.00,pywws,2013-08-16 16:50:00,
2013-08-16 12:55:00,79.9,54.1,30.24,SW,225,0.7,1.6,41,0.00,,,0.00,pywws,2013-08-16 16:55:00,
2013-08-16 13:05:00,80.2,55.0,30.25,East,90,0.7,1.6,42,0.00,,,0.00,pywws,2013-08-16 17:05:00,
2013-08-16 13:10:00,81.1,55.2,30.25,South,180,1.6,3.1,41,0.00,,,0.00,pywws,2013-08-16 17:10:00,
2013-08-16 13:16:00,80.8,55.5,30.25,West,270,4.5,6.9,42,0.00,,,0.00,pywws,2013-08-16 17:16:00,
2013-08-16 13:22:00,79.9,53.4,30.25,SE,135,3.8,5.4,40,0.00,,,0.00,pywws,2013-08-16 17:22:00,
2013-08-16 13:27:00,79.5,54.4,30.25,North,0,1.6,3.1,42,0.00,,,0.00,pywws,2013-08-16 17:27:00,
2013-08-16 13:33:00,79.3,54.9,30.25,NW,315,1.6,3.8,43,0.00,,,0.00,pywws,2013-08-16 17:33:00,
2013-08-16 13:38:00,79.0,54.6,30.25,West,270,0.7,1.6,43,0.00,,,0.00,pywws,2013-08-16 17:38:00,
2013-08-16 13:44:00,79.0,55.2,30.25,SW,225,6.0,7.6,44,0.00,,,0.00,pywws,2013-08-16 17:44:00,
2013-08-16 13:50:00,79.5,54.4,30.25,West,270,4.5,6.9,42,0.00,,,0.00,pywws,2013-08-16 17:50:00,
2013-08-16 13:55:00,80.4,55.8,30.25,WSW,248,3.8,6.9,43,0.00,,,0.00,pywws,2013-08-16 17:55:00,
2013-08-16 14:05:00,80.4,55.2,30.25,NW,315,3.1,4.5,42,0.00,,,0.00,pywws,2013-08-16 18:05:00,
2013-08-16 14:10:00,79.5,54.4,30.24,NW,315,0.7,2.2,42,0.00,,,0.00,pywws,2013-08-16 18:10:00,
2013-08-16 14:16:00,79.7,54.6,30.24,NNW,338,3.1,5.4,42,0.00,,,0.00,pywws,2013-08-16 18:16:00,
2013-08-16 14:22:00,79.7,54.6,30.24,West,270,4.5,6.9,42,0.00,,,0.00,pywws,2013-08-16 18:22:00,
2013-08-16 14:27:00,80.1,54.9,30.24,NW,315,4.5,6.0,42,0.00,,,0.00,pywws,2013-08-16 18:27:00,
2013-08-16 14:33:00,80.4,55.2,30.24,NW,315,2.2,3.1,42,0.00,,,0.00,pywws,2013-08-16 18:33:00,
2013-08-16 14:38:00,81.0,55.0,30.24,South,180,1.6,2.2,41,0.00,,,0.00,pywws,2013-08-16 18:38:00,
2013-08-16 14:44:00,80.4,55.2,30.24,South,180,2.2,4.5,42,0.00,,,0.00,pywws,2013-08-16 18:44:00,
2013-08-16 14:50:00,79.9,54.7,30.23,NW,315,3.8,6.0,42,0.00,,,0.00,pywws,2013-08-16 18:50:00,
2013-08-16 14:55:00,79.0,53.9,30.24,NW,315,2.2,3.1,42,0.00,,,0.00,pywws,2013-08-16 18:55:00,
2013-08-16 15:05:00,78.4,54.7,30.23,South,180,1.6,2.2,44,0.00,,,0.00,pywws,2013-08-16 19:05:00,
2013-08-16 15:10:00,78.3,54.5,30.24,NW,315,1.6,3.1,44,0.00,,,0.00,pywws,2013-08-16 19:10:00,
2013-08-16 15:16:00,78.1,54.4,30.23,North,0,0.7,1.6,44,0.00,,,0.00,pywws,2013-08-16 19:16:00,
2013-08-16 15:22:00,77.9,53.6,30.23,West,270,2.2,2.2,43,0.00,,,0.00,pywws,2013-08-16 19:22:00,
2013-08-16 15:27:00,77.7,53.4,30.23,North,0,1.6,2.2,43,0.00,,,0.00,pywws,2013-08-16 19:27:00,
2013-08-16 15:33:00,77.7,54.7,30.23,West,270,2.2,3.1,45,0.00,,,0.00,pywws,2013-08-16 19:33:00,
2013-08-16 15:38:00,77.9,54.2,30.23,North,0,0.0,0.7,44,0.00,,,0.00,pywws,2013-08-16 19:38:00,
2013-08-16 15:44:00,77.9,55.4,30.23,West,270,1.6,3.1,46,0.00,,,0.00,pywws,2013-08-16 19:44:00,
2013-08-16 15:50:00,77.9,54.8,30.23,SE,135,0.7,1.6,45,0.00,,,0.00,pywws,2013-08-16 19:50:00,
2013-08-16 15:55:00,77.9,54.8,30.23,NE,45,0.7,1.6,45,0.00,,,0.00,pywws,2013-08-16 19:55:00,
2013-08-16 16:05:00,77.9,54.2,30.23,East,90,0.7,1.6,44,0.00,,,0.00,pywws,2013-08-16 20:05:00,
2013-08-16 16:10:00,78.1,54.4,30.23,West,270,1.6,3.1,44,0.00,,,0.00,pywws,2013-08-16 20:10:00,
2013-08-16 16:16:00,77.9,53.6,30.23,SW,225,1.6,2.2,43,0.00,,,0.00,pywws,2013-08-16 20:16:00,
2013-08-16 16:22:00,78.1,54.4,30.23,East,90,0.0,1.6,44,0.00,,,0.00,pywws,2013-08-16 20:22:00,
2013-08-16 16:27:00,78.6,54.9,30.23,NW,315,3.1,3.8,44,0.00,,,0.00,pywws,2013-08-16 20:27:00,
2013-08-16 16:33:00,79.0,53.9,30.23,East,90,0.7,1.6,42,0.00,,,0.00,pywws,2013-08-16 20:33:00,
2013-08-16 16:38:00,79.3,54.2,30.23,SW,225,0.7,1.6,42,0.00,,,0.00,pywws,2013-08-16 20:38:00,
2013-08-16 16:44:00,79.5,54.4,30.23,SW,225,0.7,2.2,42,0.00,,,0.00,pywws,2013-08-16 20:44:00,
2013-08-16 16:50:00,79.7,53.2,30.23,NW,315,3.1,4.5,40,0.00,,,0.00,pywws,2013-08-16 20:50:00,
2013-08-16 16:55:00,79.5,53.7,30.23,SW,225,1.6,4.5,41,0.00,,,0.00,pywws,2013-08-16 20:55:00,
2013-08-16 17:05:00,79.2,53.4,30.23,SW,225,3.1,3.8,41,0.00,,,0.00,pywws,2013-08-16 21:05:00,
2013-08-16 17:10:00,78.8,53.1,30.23,West,270,3.1,4.5,41,0.00,,,0.00,pywws,2013-08-16 21:10:00,
2013-08-16 17:15:00,78.6,54.2,30.23,North,0,0.7,2.2,43,0.00,,,0.00,pywws,2013-08-16 21:15:00,
2013-08-16 17:20:00,78.3,53.9,30.23,North,0,1.6,3.8,43,0.00,,,0.00,pywws,2013-08-16 21:20:00,
2013-08-16 17:25:00,78.1,54.4,30.23,North,0,0.7,1.6,44,0.00,,,0.00,pywws,2013-08-16 21:25:00,
2013-08-16 17:30:00,78.3,54.5,30.24,East,90,0.7,1.6,44,0.00,,,0.00,pywws,2013-08-16 21:30:00,
2013-08-16 17:35:00,77.9,54.2,30.23,NE,45,0.7,1.6,44,0.00,,,0.00,pywws,2013-08-16 21:35:00,
2013-08-16 17:40:00,77.9,54.2,30.23,East,90,0.7,1.6,44,0.00,,,0.00,pywws,2013-08-16 21:40:00,
2013-08-16 17:45:00,77.9,53.6,30.24,East,90,0.7,1.6,43,0.00,,,0.00,pywws,2013-08-16 21:45:00,
2013-08-16 17:50:00,77.7,54.0,30.24,SE,135,0.7,1.6,44,0.00,,,0.00,pywws,2013-08-16 21:50:00,
2013-08-16 17:55:00,77.5,53.9,30.24,SE,135,0.0,0.7,44,0.00,,,0.00,pywws,2013-08-16 21:55:00,
2013-08-16 18:00:00,77.2,53.6,30.24,SE,135,0.0,1.6,44,0.00,,,0.00,pywws,2013-08-16 22:00:00,
2013-08-16 18:05:00,77.0,54.0,30.23,SE,135,0.0,0.7,45,0.00,,,0.00,pywws,2013-08-16 22:05:00,
2013-08-16 18:10:00,76.8,55.0,30.23,NE,45,1.6,2.2,47,0.00,,,0.00,pywws,2013-08-16 22:10:00,
2013-08-16 18:15:00,77.0,54.0,30.23,SE,135,1.6,2.2,45,0.00,,,0.00,pywws,2013-08-16 22:15:00,
2013-08-16 18:20:00,77.0,54.0,30.23,SE,135,0.7,1.6,45,0.00,,,0.00,pywws,2013-08-16 22:20:00,
2013-08-16 18:25:00,77.4,54.9,30.23,SW,225,0.0,0.7,46,0.00,,,0.00,pywws,2013-08-16 22:25:00,
2013-08-16 18:30:00,77.5,54.5,30.23,East,90,0.7,1.6,45,0.00,,,0.00,pywws,2013-08-16 22:30:00,
2013-08-16 18:35:00,77.5,55.1,30.23,SSE,158,0.7,1.6,46,0.00,,,0.00,pywws,2013-08-16 22:35:00,
2013-08-16 18:40:00,77.5,55.1,30.23,East,90,1.6,2.2,46,0.00,,,0.00,pywws,2013-08-16 22:40:00,
2013-08-16 18:45:00,77.4,54.9,30.23,NW,315,0.7,1.6,46,0.00,,,0.00,pywws,2013-08-16 22:45:00,
2013-08-16 18:50:00,77.4,54.9,30.23,SSW,202,2.2,4.5,46,0.00,,,0.00,pywws,2013-08-16 22:50:00,
2013-08-16 18:55:00,77.0,54.6,30.24,West,270,1.6,3.8,46,0.00,,,0.00,pywws,2013-08-16 22:55:00,
2013-08-16 19:00:00,76.5,54.7,30.24,SE,135,0.7,1.6,47,0.00,,,0.00,pywws,2013-08-16 23:00:00,
2013-08-16 19:05:00,76.1,54.4,30.24,SE,135,3.1,3.8,47,0.00,,,0.00,pywws,2013-08-16 23:05:00,
2013-08-16 19:10:00,75.6,54.5,30.24,South,180,1.6,2.2,48,0.00,,,0.00,pywws,2013-08-16 23:10:00,
2013-08-16 19:15:00,75.4,54.3,30.24,SW,225,3.1,4.5,48,0.00,,,0.00,pywws,2013-08-16 23:15:00,
2013-08-16 19:20:00,75.2,54.1,30.25,NW,315,0.7,1.6,48,0.00,,,0.00,pywws,2013-08-16 23:20:00,
2013-08-16 19:25:00,75.0,54.5,30.25,SW,225,4.5,6.9,49,0.00,,,0.00,pywws,2013-08-16 23:25:00,
2013-08-16 19:30:00,74.7,54.2,30.25,SW,225,0.7,2.2,49,0.00,,,0.00,pywws,2013-08-16 23:30:00,
2013-08-16 19:35:00,74.5,54.1,30.25,SE,135,1.6,2.2,49,0.00,,,0.00,pywws,2013-08-16 23:35:00,
2013-08-16 19:40:00,74.3,53.9,30.25,NW,315,1.6,4.5,49,0.00,,,0.00,pywws,2013-08-16 23:40:00,
2013-08-16 19:45:00,73.9,53.6,30.25,SW,225,0.7,3.1,49,0.00,,,0.00,pywws,2013-08-16 23:45:00,
2013-08-16 19:50:00,73.6,53.2,30.25,SW,225,3.8,6.9,49,0.00,,,0.00,pywws,2013-08-16 23:50:00,
2013-08-16 19:55:00,73.2,54.0,30.26,East,90,2.2,3.1,51,0.00,,,0.00,pywws,2013-08-16 23:55:00,
2013-08-16 20:00:00,72.9,53.7,30.26,East,90,0.0,0.7,51,0.00,,,0.00,pywws,2013-08-17 00:00:00,
2013-08-16 20:05:00,72.5,52.8,30.26,NE,45,0.7,2.2,50,0.00,,,0.00,pywws,2013-08-17 00:05:00,
2013-08-16 20:10:00,72.3,53.2,30.26,NE,45,0.0,1.6,51,0.00,,,0.00,pywws,2013-08-17 00:10:00,
2013-08-16 20:15:00,72.0,52.8,30.26,SW,225,1.6,3.8,51,0.00,,,0.00,pywws,2013-08-17 00:15:00,
2013-08-16 20:20:00,71.8,52.7,30.26,East,90,0.7,1.6,51,0.00,,,0.00,pywws,2013-08-17 00:20:00,
2013-08-16 20:25:00,71.4,52.9,30.26,East,90,0.7,1.6,52,0.00,,,0.00,pywws,2013-08-17 00:25:00,
2013-08-16 20:30:00,71.2,53.2,30.26,South,180,0.7,2.2,53,0.00,,,0.00,pywws,2013-08-17 00:30:00,
2013-08-16 20:35:00,71.2,53.2,30.26,South,180,2.2,3.8,53,0.00,,,0.00,pywws,2013-08-17 00:35:00,
2013-08-16 20:40:00,71.1,53.1,30.27,SE,135,0.7,2.2,53,0.00,,,0.00,pywws,2013-08-17 00:40:00,
2013-08-16 20:45:00,71.1,53.6,30.26,South,180,0.0,0.7,54,0.00,,,0.00,pywws,2013-08-17 00:45:00,
2013-08-16 20:50:00,70.9,53.4,30.26,South,180,0.7,3.1,54,0.00,,,0.00,pywws,2013-08-17 00:50:00,
2013-08-16 20:55:00,70.7,53.7,30.27,NE,45,0.7,2.2,55,0.00,,,0.00,pywws,2013-08-17 00:55:00,
2013-08-16 21:05:00,70.5,53.6,30.27,South,180,0.7,3.1,55,0.00,,,0.00,pywws,2013-08-17 01:05:00,
2013-08-16 21:11:00,70.2,53.2,30.28,SE,135,0.7,1.6,55,0.00,,,0.00,pywws,2013-08-17 01:11:00,
2013-08-16 21:17:00,70.0,52.6,30.28,SSE,158,1.6,3.1,54,0.00,,,0.00,pywws,2013-08-17 01:17:00,
2013-08-16 21:22:00,70.0,52.6,30.28,SE,135,0.7,1.6,54,0.00,,,0.00,pywws,2013-08-17 01:22:00,
2013-08-16 21:28:00,69.8,52.4,30.28,SE,135,1.6,4.5,54,0.00,,,0.00,pywws,2013-08-17 01:28:00,
2013-08-16 21:34:00,69.6,52.7,30.28,South,180,2.2,4.5,55,0.00,,,0.00,pywws,2013-08-17 01:34:00,
2013-08-16 21:39:00,69.4,53.0,30.28,South,180,3.1,4.5,56,0.00,,,0.00,pywws,2013-08-17 01:39:00,
2013-08-16 21:45:00,69.4,53.0,30.28,South,180,0.7,1.6,56,0.00,,,0.00,pywws,2013-08-17 01:45:00,
2013-08-16 21:50:00,69.3,53.4,30.29,West,270,1.6,3.1,57,0.00,,,0.00,pywws,2013-08-17 01:50:00,
2013-08-16 21:56:00,69.1,53.7,30.28,South,180,1.6,3.1,58,0.00,,,0.00,pywws,2013-08-17 01:56:00,
2013-08-16 22:05:00,69.1,53.7,30.28,South,180,0.7,2.2,58,0.00,,,0.00,pywws,2013-08-17 02:05:00,
2013-08-16 22:10:00,68.7,54.3,30.29,East,90,0.0,0.7,60,0.00,,,0.00,pywws,2013-08-17 02:10:00,
2013-08-16 22:16:00,68.5,54.1,30.29,WSW,248,1.6,4.5,60,0.00,,,0.00,pywws,2013-08-17 02:16:00,
2013-08-16 22:22:00,68.5,54.1,30.29,WSW,248,1.6,4.5,60,0.00,,,0.00,pywws,2013-08-17 02:22:00,
2013-08-16 22:27:00,68.2,54.2,30.29,SE,135,0.0,0.0,61,0.00,,,0.00,pywws,2013-08-17 02:27:00,
2013-08-16 22:33:00,68.2,54.7,30.29,East,90,0.0,2.2,62,0.00,,,0.00,pywws,2013-08-17 02:33:00,
2013-08-16 22:38:00,68.0,54.5,30.29,SW,225,0.7,2.2,62,0.00,,,0.00,pywws,2013-08-17 02:38:00,
2013-08-16 22:44:00,67.8,54.8,30.29,South,180,0.0,0.7,63,0.00,,,0.00,pywws,2013-08-17 02:44:00,
2013-08-16 22:54:00,67.5,54.4,30.29,South,180,0.0,0.7,63,0.00,,,0.00,pywws,2013-08-17 02:54:00,
2013-08-16 22:59:00,67.5,54.8,30.29,West,270,0.7,1.6,64,0.00,,,0.00,pywws,2013-08-17 02:59:00,
2013-08-16 23:06:00,67.5,54.8,30.29,West,270,0.7,1.6,64,0.00,,,0.00,pywws,2013-08-17 03:06:00,
2013-08-16 23:12:00,67.1,54.5,30.30,SW,225,0.0,0.0,64,0.00,,,0.00,pywws,2013-08-17 03:12:00,
2013-08-16 23:18:00,66.9,54.3,30.30,SE,135,0.0,0.0,64,0.00,,,0.00,pywws,2013-08-17 03:18:00,
2013-08-16 23:23:00,66.7,54.2,30.29,SW,225,0.7,1.6,64,0.00,,,0.00,pywws,2013-08-17 03:23:00,
2013-08-16 23:29:00,66.6,54.0,30.29,SW,225,0.7,1.6,64,0.00,,,0.00,pywws,2013-08-17 03:29:00,
2013-08-16 23:34:00,66.4,54.3,30.30,West,270,0.0,0.0,65,0.00,,,0.00,pywws,2013-08-17 03:34:00,
2013-08-16 23:40:00,66.0,54.3,30.30,West,270,0.0,0.0,66,0.00,,,0.00,pywws,2013-08-17 03:40:00,
2013-08-16 23:46:00,65.8,54.6,30.30,West,270,0.0,0.0,67,0.00,,,0.00,pywws,2013-08-17 03:46:00,
2013-08-16 23:51:00,65.7,54.4,30.30,NW,315,0.7,1.6,67,0.00,,,0.00,pywws,2013-08-17 03:51:00,
2013-08-16 23:57:00,65.3,54.5,30.30,NW,315,0.0,0.7,68,0.00,,,0.00,pywws,2013-08-17 03:57:00,